User: anonymous   Login
Location: Newark
(28.4500°N, 16.2500°W)
Time: 09:24:24
(UTC+00:00)
Language:

FO-29 - Orbit

View from above orbital plane
View from above orbital plane
View from above satellite
View from above satellite

Ground track
Ground track

The orbit data is extracted from the following two-line orbital elements,

1 24278U 96046B   19260.87126274 -.00000009 +00000-0 +27454-4 0  9999
2 24278 098.5514 041.9598 0350412 003.8037 356.5644 13.53092874139883
Epoch (UTC): 17 September 2019 20:54:37
Eccentricity: 0.0350412
inclination: 98.5514°
perigee height: 800 km
apogee height: 1321 km
right ascension of ascending node: 41.9598°
argument of perigee: 3.8037°
revolutions per day: 13.53092874
mean anomaly at epoch: 356.5644°
orbit number at epoch: 13988

The dashed part of the orbit path shows where the satellite is in the earth's shadow,  

DLR